Regional Weather Roundup
Issued by NWS

Home | Current Version | Previous Version | Graphics & Text | Print | Product List | Glossary On
Versions: 1 2 3 4 5 6 7 8 9 10 11 12 13 14 15 16 17 18 19 20 21 22 23 24 25 26 27 28 29 30 31 32 33 34 35 36 37 38 39 40 41 42 43 44 45 46 47 48 49 50
000
ASUS43 KLSX 241659
RWRMO

WEATHER SUMMARY FOR MISSOURI
NATIONAL WEATHER SERVICE SPRINGFIELD MO
1200 PM CDT SUN MAY 24 2015

NOTE: "FAIR" INDICATES FEW OR NO CLOUDS BELOW 12,000 FEET WITH NO
       SIGNIFICANT WEATHER AND/OR OBSTRUCTIONS TO VISIBILITY.
       CURRENT SKY AND/OR WEATHER CONDITIONS ARE NOT AVAILABLE FOR
       CHILLICOTHE AND FARMINGTON.

MOZ001>031-035>038-043-044-053-054-241800-
...NORTHERN AND WESTERN MISSOURI...

CITY           SKY/WX    TMP DP  RH WIND       PRES   REMARKS
KANSAS CTY INT DRIZZLE   67  64  90 S8        29.90S
KANSAS C DTWN  LGT RAIN  69  63  81 SW6       29.89F
LEE`S SUMMIT   CLOUDY    68  62  81 S10       29.91S
ST JOSEPH      LGT RAIN  69  63  81 S10       29.88S
KIRKSVILLE     LGT RAIN  69  65  86 S14       29.94S

$$
MOZ066>068-077>081-088>096-101>105-241800-
...SOUTHWEST MISSOURI...

CITY           SKY/WX    TMP DP  RH WIND       PRES   REMARKS
SPRINGFIELD    LGT RAIN  73  66  78 S15G24    29.92S
JOPLIN         LGT RAIN  67  65  93 W6        29.91R FOG

$$
MOZ032>034-039>042-045>050-055>058-069>072-241800-
...CENTRAL MISSOURI...

CITY           SKY/WX    TMP DP  RH WIND       PRES   REMARKS
COLUMBIA       CLOUDY    75  67  76 S17       29.94F
JEFFERSON CITY CLOUDY    78  65  63 S14G28    29.93F
ROLLA          PTSUNNY   76  66  71 S26G35    29.97S
SEDALIA        CLOUDY    74  67  78 S9G21     29.92S
WHITEMAN AFB   CLOUDY    68  66  94 SW6       29.90F
OSAGE BEACH    CLOUDY    77  64  65 S12G20    29.94F

$$
MOZ051-052-059>065-241800-
...EAST CENTRAL MISSOURI...

CITY           SKY/WX    TMP DP  RH WIND       PRES   REMARKS
ST LOUIS INTL  PTSUNNY   82  62  50 S23G31    30.02F
SPIRIT OF STL  PTSUNNY   80  64  58 S15G22    29.99F
ST CHARLES     MOSUNNY   81  64  56 S22G30    30.00F

$$
MOZ072>076-082>087-097>100-106>115-241800-
...SOUTH CENTRAL AND SOUTHEAST MISSOURI...

CITY           SKY/WX    TMP DP  RH WIND       PRES   REMARKS
CAPE GIRARDEAU MOSUNNY   81  66  60 S16G25    30.07F
FARMINGTON     MOSUNNY   79  63  57 S22G29    30.08F
POPLAR BLUFF   PTSUNNY   80  66  62 S14G28    30.04F
WEST PLAINS    LGT RAIN  73  66  78 S18       30.03S

$$


USA.gov is the U.S. government's official web portal to all federal, state and local government web resources and services.